[[{"header":{"parameterUnit":"m.s-1","parameterCategory":1,"la1":30.2991,"la2":30.254,"lo1":-89.0895,"lo2":-89.0444,"dy":0.0017,"dx":0.0017,"nx":28,"ny":28,"refTime":"2024-02-02T09:00:00:Z","depth":0,"parameterNumber":2,"parameterNumberName":"U-component_of_WINDS"},"data":[0,0,0,0,0,0,0,0,0,0,0,0,0,0,0,0,0,0,0,0,0,0,0,0,0,0,0,0,0,0,0,0,0,0,0,0,0,0,0,0,0,0,0,0,0,0,0,0,0,0,0,0,0,0,0,0,0,0,-4.11,-4.11,0,-4.1087,-4.1087,-4.1087,-4.0951,-4.0947,-4.0944,-4.0941,-4.093,-4.0932,-4.0935,0,0,0,0,0,0,0,0,0,0,0,0,0,-4.1007,-4.1009,-4.11,-4.11,-4.11,-4.1087,-4.1087,-4.1087,-4.0951,-4.0947,-4.0943,-4.0939,-4.0929,-4.0932,-4.0936,0,0,0,0,0,0,0,0,0,0,0,0,0,-4.1026,-4.101,-4.11,-4.103,-4.1024,-4.1087,-4.1087,-4.1087,-4.0952,-4.0947,-4.0942,-4.0937,-4.0928,-4.0932,-4.0936,-4.1066,0,0,-4.0949,-4.0951,0,0,0,0,0,0,0,0,-4.1025,-4.103,-4.1041,-4.1035,-4.1028,-4.1015,-4.105,-4.108,-4.0953,-4.098,-4.094,-4.0934,-4.0962,-4.0964,-4.0973,-4.1065,-4.1065,-4.095,-4.0952,-4.0954,-4.0956,0,0,0,0,0,0,0,-4.1024,-4.103,-4.1095,-4.1041,-4.1033,-4.1,-4.0997,-4.1055,-4.1,-4.0977,-4.0967,-4.0967,-4.0958,-4.0969,-4.0971,-4.1065,-4.095,-4.0954,-4.0956,-4.0958,-4.1263,-4.1268,0,0,0,0,0,0,-4.1032,-4.103,-4.1095,-4.1094,-4.1014,-4.1006,-4.1002,-4.1025,-4.0999,-4.099,-4.0972,-4.0961,-4.0964,-4.0966,-4.097,-4.112,-4.0954,-4.0958,-4.0961,-4.1257,-4.1264,-4.127,0,0,0,0,0,0,-4.1031,-4.104,-4.1096,-4.1059,-4.1064,-4.1013,-4.1039,-4.1027,-4.1037,-4.0995,-4.0984,-4.0993,-4.096,-4.0964,-4.1043,-4.1118,-4.096,-4.0964,-4.1251,-4.1259,-4.1267,-4.1422,0,0,0,0,0,0,-4.1029,-4.104,-4.1089,-4.1061,-4.1066,-4.1169,-4.1043,-4.1031,-4.1045,-4.1031,-4.1012,-4.1004,-4.0956,-4.1037,-4.1047,-4.1121,-4.0968,-4.1244,-4.1254,-4.1264,-4.141,-4.1435,-4.1456,0,0,0,0,0,-4.1026,-4.1134,-4.1092,-4.1101,-4.1126,-4.1173,-4.1176,-4.1119,-4.1052,-4.11,-4.1073,-4.1004,-4.1108,-4.1046,-4.1057,-4.1133,-4.1239,-4.1251,-4.1263,-4.14,-4.143,-4.1455,0,0,0,0,0,0,-4.1172,-4.1129,-4.1082,-4.1184,-4.1183,-4.115,-4.121,-4.1152,-4.1171,-4.1157,-4.1085,-4.1082,-4.1172,-4.116,-4.1092,-4.1257,-4.1161,-4.1177,-4.1262,-4.129,-4.1312,-4.1314,-4.0971,0,0,0,0,0,-4.1216,-4.1258,-4.1217,-4.1311,-4.1313,-4.1262,-4.128,-4.1236,-4.1232,-4.1232,-4.121,-4.121,-4.1242,-4.1265,-4.1292,-4.1407,-4.1401,-4.1465,-4.1488,-4.1507,-4.1521,-4.1581,-4.1609,-4.131,-4.131,-4.131,0,0,-4.1308,-4.1289,-4.132,-4.134,-4.1334,-4.1379,-4.1263,-4.1315,-4.1348,-4.124,-4.1313,-4.1297,-4.1292,-4.1389,-4.1431,-4.1382,-4.1602,-4.1522,-4.1538,-4.1542,-4.1596,-4.1625,-4.165,-4.1319,-4.1317,-4.1316,0,0,-4.1498,-4.1488,-4.1564,-4.156,-4.1553,-4.1518,-4.1536,-4.1512,-4.1497,-4.1568,-4.1488,-4.1526,-4.1583,-4.1583,-4.159,-4.1779,-4.1716,-4.1789,-4.1909,-4.1968,-4.1992,-4.2012,-4.208,-4.2105,-4.1803,-4.1804,-4.1804,0,-4.1613,-4.1677,-4.1611,-4.1669,-4.168,-4.1583,-4.166,-4.166,-4.1662,-4.1672,-4.1617,-4.1686,-4.1676,-4.1772,-4.1818,-4.1827,-4.1846,-4.1792,-4.1993,-4.2013,-4.2032,-4.2095,-4.2121,-4.1813,-4.1812,-4.1811,-4.181,0,-4.1819,-4.1864,-4.1927,-4.1931,-4.1949,-4.2016,-4.1961,-4.1987,-4.1941,-4.1912,-4.1986,-4.197,-4.1992,-4.2011,-4.1967,-4.2101,-4.2071,-4.2006,-4.1909,-4.207,-4.2129,-4.2153,-4.1826,-4.1822,-4.182,-4.1817,0,0,-4.2103,-4.2067,-4.2092,-4.2092,-4.2075,-4.2109,-4.2172,-4.2193,-4.2217,-4.2221,-4.2272,-4.2323,-4.2262,-4.227,-4.2225,-4.2277,-4.2427,-4.2205,-4.2203,-4.2247,-4.2574,-4.2624,-4.2654,-4.2385,-4.239,-4.2393,-4.2575,0,-4.2286,-4.239,-4.2333,-4.2445,-4.2487,-4.2394,-4.2448,-4.2445,-4.2419,-4.245,-4.2421,-4.2458,-4.2375,-4.238,-4.2427,-4.2399,-4.2492,-4.2385,-4.2433,-4.2436,-4.2438,-4.2684,-4.2737,-4.291,-4.2598,-4.2601,-4.2604,0,-4.2514,-4.2527,-4.2644,-4.2619,-4.2634,-4.2684,-4.2698,-4.2729,-4.2722,-4.27,-4.2709,-4.2651,-4.271,-4.2613,-4.2695,-4.2624,-4.264,-4.2629,-4.2634,-4.2638,-4.2531,-4.2695,-4.2963,-4.299,-4.264,-4.2637,-4.2634,0,-4.2711,-4.2757,-4.2833,-4.2835,-4.2808,-4.2845,-4.2835,-4.2823,-4.2839,-4.2852,-4.2861,-4.2881,-4.2892,-4.2909,-4.2858,-4.2792,-4.2947,-4.2845,-4.2931,-4.2932,-4.2969,-4.2967,-4.3245,-4.2978,-4.2977,-4.2977,-4.2976,0,-4.2922,-4.2998,-4.292,-4.2967,-4.3049,-4.2981,-4.3064,-4.3044,-4.3034,-4.3076,-4.2996,-4.3037,-4.2966,-4.3,-4.296,-4.3034,-4.304,-4.3024,-4.3013,-4.3032,-4.3034,-4.3042,-4.3029,-4.2984,-4.2982,-4.2981,-4.298,0,-4.3156,-4.3107,-4.3184,-4.315,-4.3143,-4.3205,-4.3177,-4.3219,-4.3187,-4.324,-4.3249,-4.3199,-4.3235,-4.3185,-4.3216,-4.3189,-4.3291,-4.3261,-4.3293,-4.3285,-4.3373,-4.3366,-4.3666,-4.3702,-4.3412,-4.3415,-4.3417,0,-4.3295,-4.3351,-4.3323,-4.3344,-4.3339,-4.3375,-4.339,-4.3325,-4.3345,-4.334,-4.3384,-4.3412,-4.3432,-4.3493,-4.346,-4.3483,-4.3454,-4.3557,-4.3457,-4.3474,-4.3456,-4.3454,-4.346,-4.3579,-4.3582,-4.3585,-4.3587,0,-4.3547,-4.352,-4.3544,-4.3561,-4.3581,-4.3591,-4.3595,-4.3618,-4.3549,-4.3575,-4.361,-4.3625,-4.3656,-4.3685,-4.37,-4.369,-4.3629,-4.3619,-4.364,-4.3661,-4.3677,-4.367,-4.335,-4.3613,-4.361,-4.3608,-4.3607,-4.3606,-4.3738,-4.3783,-4.377,-4.38,-4.3796,-4.3801,-4.3839,-4.3811,-4.3838,-4.3857,-4.3817,-4.3862,-4.3853,-4.3866,-4.3863,-4.3897,-4.3852,-4.3883,-4.3891,-4.3899,-4.3913,-4.3671,-4.39,-4.3899,-4.3898,-4.3897,-4.3897,0,-4.3987,-4.3973,-4.4002,-4.4009,-4.4033,-4.397,-4.3971,-4.3995,-4.4036,-4.4032,-4.4052,-4.4092,-4.412,-4.4089,-4.4111,-4.4145,-4.4117,-4.4153,-4.4151,-4.415,-4.3952,-4.3932,-4.4175,-4.4175,-4.4175,-4.4175,-4.4175,-4.4175,-4.4119,-4.4192,-4.4163,-4.4232,-4.4217,-4.426,-4.4266,-4.4271,-4.4267,-4.4315,-4.4337,-4.4316,-4.4301,-4.4322,-4.4345,-4.4335,-4.4347,-4.4394,-4.4374,-4.4191,-4.4164,-4.4138,-4.4118,-4.4397,-4.4397,-4.4569,-4.457,-4.4572]},{"header":{"parameterUnit":"m.s-1","parameterCategory":1,"la1":30.2991,"la2":30.254,"lo1":-89.0895,"lo2":-89.0444,"dy":0.0017,"dx":0.0017,"nx":28,"ny":28,"refTime":"2024-02-02T09:00:00:Z","depth":0,"parameterNumber":3,"parameterNumberName":"V-component_of_WINDS"},"data":[0,0,0,0,0,0,0,0,0,0,0,0,0,0,0,0,0,0,0,0,0,0,0,0,0,0,0,0,0,0,0,0,0,0,0,0,0,0,0,0,0,0,0,0,0,0,0,0,0,0,0,0,0,0,0,0,0,0,-0.6546,-0.6546,0,-0.654,-0.654,-0.654,-0.6546,-0.6546,-0.6546,-0.6547,-0.654,-0.6539,-0.6539,0,0,0,0,0,0,0,0,0,0,0,0,0,-0.656,-0.656,-0.6546,-0.6546,-0.6546,-0.654,-0.654,-0.654,-0.6546,-0.6546,-0.6547,-0.6547,-0.654,-0.6539,-0.6539,0,0,0,0,0,0,0,0,0,0,0,0,0,-0.6554,-0.656,-0.6546,-0.6548,-0.6548,-0.654,-0.654,-0.654,-0.6546,-0.6546,-0.6547,-0.6547,-0.654,-0.6539,-0.6539,-0.6528,0,0,-0.6537,-0.6537,0,0,0,0,0,0,0,0,-0.6555,-0.6554,-0.6548,-0.6548,-0.6548,-0.6544,-0.6543,-0.6536,-0.6546,-0.6547,-0.6547,-0.6547,-0.6541,-0.654,-0.6538,-0.6528,-0.6527,-0.6537,-0.6536,-0.6536,-0.6536,0,0,0,0,0,0,0,-0.6555,-0.6554,-0.6544,-0.6548,-0.6548,-0.6549,-0.6548,-0.6541,-0.6542,-0.6547,-0.6547,-0.6546,-0.6541,-0.6539,-0.6538,-0.6527,-0.6537,-0.6536,-0.6536,-0.6536,-0.6506,-0.6506,0,0,0,0,0,0,-0.6555,-0.6554,-0.6544,-0.6544,-0.6552,-0.6548,-0.6548,-0.6545,-0.6542,-0.6542,-0.6546,-0.6547,-0.654,-0.6539,-0.6538,-0.6524,-0.6536,-0.6536,-0.6535,-0.6507,-0.6506,-0.6506,0,0,0,0,0,0,-0.6556,-0.6554,-0.6544,-0.6549,-0.6548,-0.6548,-0.6545,-0.6545,-0.6543,-0.6542,-0.6542,-0.6544,-0.654,-0.6539,-0.653,-0.6524,-0.6535,-0.6535,-0.6507,-0.6506,-0.6506,-0.6497,0,0,0,0,0,0,-0.6556,-0.6554,-0.6551,-0.6549,-0.6548,-0.6537,-0.6544,-0.6544,-0.6542,-0.6543,-0.654,-0.6539,-0.654,-0.6531,-0.653,-0.6523,-0.6534,-0.6508,-0.6507,-0.6506,-0.6498,-0.6496,-0.6495,0,0,0,0,0,-0.6557,-0.6549,-0.6551,-0.6549,-0.6543,-0.6537,-0.6536,-0.6537,-0.6541,-0.6537,-0.6536,-0.6539,-0.6525,-0.653,-0.6529,-0.6522,-0.6508,-0.6507,-0.6506,-0.6498,-0.6496,-0.6495,0,0,0,0,0,0,-0.655,-0.6548,-0.6551,-0.6542,-0.6539,-0.6538,-0.6533,-0.6535,-0.6531,-0.6532,-0.6533,-0.6533,-0.6523,-0.6522,-0.6528,-0.6511,-0.6517,-0.6516,-0.6512,-0.651,-0.6508,-0.6508,-0.6534,0,0,0,0,0,-0.6547,-0.6543,-0.6542,-0.6534,-0.6533,-0.6533,-0.653,-0.6531,-0.6529,-0.6527,-0.6526,-0.6523,-0.6517,-0.6514,-0.6509,-0.6498,-0.6496,-0.6492,-0.6491,-0.649,-0.6488,-0.6481,-0.6478,-0.6502,-0.6502,-0.6502,0,0,-0.6542,-0.6541,-0.6538,-0.6533,-0.6531,-0.6525,-0.6532,-0.6526,-0.6522,-0.6526,-0.6518,-0.6517,-0.6513,-0.6503,-0.6498,-0.6501,-0.6481,-0.6488,-0.6487,-0.6486,-0.6479,-0.6477,-0.6475,-0.6502,-0.6502,-0.6502,0,0,-0.6529,-0.6528,-0.6521,-0.6519,-0.6516,-0.6517,-0.6515,-0.6513,-0.6512,-0.6504,-0.6507,-0.6501,-0.6492,-0.6489,-0.6486,-0.6471,-0.6474,-0.647,-0.6461,-0.6454,-0.6452,-0.645,-0.6444,-0.6441,-0.6469,-0.6469,-0.6469,0,-0.6523,-0.6515,-0.6517,-0.6511,-0.6508,-0.6513,-0.6505,-0.6503,-0.6498,-0.6495,-0.6499,-0.6487,-0.6485,-0.6474,-0.647,-0.6468,-0.6465,-0.647,-0.6452,-0.6451,-0.6449,-0.6443,-0.644,-0.6468,-0.6468,-0.6468,-0.6468,0,-0.6507,-0.6501,-0.6496,-0.6491,-0.6488,-0.6481,-0.6482,-0.6478,-0.6479,-0.6478,-0.6469,-0.6467,-0.6461,-0.6458,-0.646,-0.6447,-0.6448,-0.6452,-0.6458,-0.6446,-0.644,-0.6438,-0.6467,-0.6467,-0.6468,-0.6468,0,0,-0.649,-0.6486,-0.6484,-0.6481,-0.6478,-0.6474,-0.6466,-0.6461,-0.6457,-0.6453,-0.6446,-0.6438,-0.6442,-0.6438,-0.6439,-0.6433,-0.642,-0.6438,-0.6437,-0.6433,-0.6403,-0.6399,-0.6397,-0.6422,-0.6421,-0.6421,-0.6403,0,-0.6476,-0.6464,-0.6465,-0.6453,-0.6447,-0.6451,-0.6444,-0.6441,-0.644,-0.6435,-0.6433,-0.6427,-0.6433,-0.643,-0.6425,-0.6423,-0.6414,-0.6424,-0.6414,-0.6413,-0.6413,-0.6394,-0.639,-0.6374,-0.6401,-0.6401,-0.64,0,-0.6458,-0.6454,-0.6442,-0.6438,-0.6436,-0.643,-0.6424,-0.6419,-0.6415,-0.6415,-0.6411,-0.6413,-0.6404,-0.6411,-0.6399,-0.6406,-0.6402,-0.64,-0.6399,-0.6398,-0.6405,-0.639,-0.6368,-0.6365,-0.6397,-0.6397,-0.6397,0,-0.6445,-0.6437,-0.6428,-0.6426,-0.6422,-0.6417,-0.6415,-0.6412,-0.6408,-0.6403,-0.64,-0.6394,-0.639,-0.6385,-0.6385,-0.639,-0.6371,-0.6379,-0.637,-0.637,-0.6365,-0.6365,-0.6341,-0.6364,-0.6364,-0.6364,-0.6365,0,-0.6429,-0.6421,-0.6422,-0.6416,-0.6406,-0.6408,-0.6398,-0.6397,-0.6393,-0.6387,-0.639,-0.6383,-0.6384,-0.6377,-0.6376,-0.6365,-0.6364,-0.6362,-0.6362,-0.6361,-0.6361,-0.6358,-0.6358,-0.6364,-0.6364,-0.6364,-0.6364,0,-0.6413,-0.6413,-0.6403,-0.6401,-0.64,-0.6392,-0.639,-0.6384,-0.6383,-0.6374,-0.6372,-0.6371,-0.6363,-0.6362,-0.6353,-0.6352,-0.6338,-0.634,-0.634,-0.6339,-0.633,-0.633,-0.6301,-0.6297,-0.6325,-0.6324,-0.6324,0,-0.6402,-0.6396,-0.6392,-0.6388,-0.6386,-0.6379,-0.6375,-0.6376,-0.6372,-0.6366,-0.636,-0.6353,-0.6346,-0.6333,-0.6331,-0.6323,-0.6324,-0.6314,-0.6323,-0.6321,-0.6322,-0.6322,-0.632,-0.6312,-0.6312,-0.6312,-0.6312,0,-0.6383,-0.6383,-0.6377,-0.6371,-0.6366,-0.6361,-0.6357,-0.6353,-0.6354,-0.6348,-0.634,-0.6335,-0.6325,-0.6317,-0.6309,-0.6306,-0.6308,-0.6309,-0.6306,-0.6305,-0.6304,-0.6303,-0.6334,-0.6309,-0.631,-0.631,-0.631,-0.631,-0.6368,-0.6362,-0.6358,-0.6351,-0.6348,-0.6343,-0.6337,-0.6336,-0.6329,-0.6321,-0.6322,-0.6313,-0.6307,-0.6297,-0.6294,-0.6286,-0.6289,-0.6285,-0.6284,-0.6283,-0.6281,-0.6306,-0.6285,-0.6285,-0.6285,-0.6285,-0.6285,0,-0.6347,-0.6345,-0.6338,-0.6332,-0.6326,-0.6329,-0.6324,-0.6319,-0.6311,-0.6306,-0.63,-0.629,-0.6281,-0.6278,-0.6269,-0.6263,-0.6264,-0.6261,-0.6261,-0.626,-0.628,-0.6282,-0.6261,-0.6261,-0.6261,-0.6261,-0.6261,-0.6261,-0.6335,-0.6325,-0.6325,-0.6312,-0.631,-0.6301,-0.6297,-0.6293,-0.6289,-0.6277,-0.6271,-0.6269,-0.6264,-0.6255,-0.6247,-0.6246,-0.6242,-0.6239,-0.6238,-0.6256,-0.6259,-0.6261,-0.6263,-0.6238,-0.6238,-0.6218,-0.6218,-0.6218]}]]